Location: Catenanuova
(37.5690°N, 14.6870°E)
Time: 13:43:49
(UTC+02:00)

Tiangong - Visible Passes

Search period start: 23 May 2024 00:00
Search period end: 02 June 2024 00:00
Orbit: 371 x 374 km, 41.5° (Epoch: 23 May)

Date Brightness Start Highest point End Pass type
(mag) Time Alt. Az. Time Alt. Az. Time Alt. Az.
23 May 0.2 03:28:20 17° ESE 03:28:20 17° ESE 03:29:29 10° E visible
23 May -2.0 05:00:18 10° W 05:03:18 66° NNW 05:06:22 10° ENE visible
24 May -2.4 03:59:31 68° SSW 03:59:44 74° SSE 04:02:49 10° ENE visible
25 May 0.8 02:58:39 13° E 02:58:39 13° E 02:59:05 10° E visible
25 May -1.5 04:30:35 17° W 04:32:43 50° NNW 04:35:44 10° ENE visible
26 May -1.4 03:29:37 50° NE 03:29:37 50° NE 03:32:01 10° ENE visible
26 May -0.9 05:02:48 10° WNW 05:05:43 37° N 05:08:37 10° ENE visible
27 May -1.1 04:00:29 26° WNW 04:01:47 42° N 04:04:43 10° ENE visible
28 May 0.1 02:59:21 24° ENE 02:59:21 24° ENE 03:00:48 10° ENE visible
28 May -0.8 04:31:42 10° WNW 04:34:36 37° N 04:37:31 10° ENE visible
29 May -1.0 03:30:07 36° NNW 03:30:28 38° N 03:33:23 10° ENE visible
29 May -1.4 05:04:16 10° WNW 05:07:18 53° NNE 05:10:19 10° E visible
30 May 1.0 02:28:56 12° ENE 02:28:56 12° ENE 02:29:15 10° ENE visible
30 May -1.0 04:00:52 15° WNW 04:03:06 40° N 04:06:03 10° E visible
31 May -0.2 02:59:44 29° NE 02:59:44 29° NE 03:01:42 10° ENE visible
31 May -2.0 04:32:29 10° WNW 04:35:33 71° NNE 04:38:38 10° ESE visible
01 Jun -1.3 03:30:41 41° NNW 03:31:14 47° NNE 03:34:13 10° E visible
01 Jun -1.8 05:04:47 10° W 05:07:44 43° SSW 05:10:41 10° SE visible
